Location: Rowland
(34.5359°N, 79.2929°W)
Time: 18:06:01
(UTC+00:00)

Transit 2A - Pass Details

Date: 12 October 2022
Orbit: 598 x 959 km, 66.7° (Epoch: 02 December)

Event Time Altitude Azimuth Distance (km) Brightness Sun altitude
Rises 12:38:45 0° 308° (NW) 3,113 8.6 14.8°
Reaches altitude 10° 12:42:14 10° 282° (WNW) 2,269 7.9 15.5°
Maximum altitude 12:44:40 13° 254° (WSW) 2,093 7.9 15.9°
Drops below altitude 10° 12:47:12 10° 226° (SW) 2,379 8.4 16.4°
Sets 12:51:03 0° 201° (SSW) 3,393 9.4 17.1°
